Rbgn^[z[y[W
メイン
   新天体発見情報
     Comet P/2005 S2 = P/2025 OZ695 (Skiff)
投稿するにはまず登録を

フラット表示 前のトピック | 次のトピック
投稿者 スレッド
佐藤裕久
投稿日時: 2026-7-21 16:07
モデレータ
登録日: 2005-6-12
居住地: 日本
投稿: 2703
オンライン
Comet P/2005 S2 = P/2025 OZ695 (Skiff)

7月19日、Vera Rubin天文台、Simonyi サーベイ望遠鏡の8.4-m f/1.234 改良型Paul-Baker
で得たCCD画像から小惑星状の天体が発見され、小惑星センターにより、P/2005 S2の再発見
として同定された(IAUC 8606、8618を参照)。 
ICQ's Comet Handbook 2007 (またはNK 1283の類似軌道に関する予報)に対する修正補は
必要ない。
MPC 194109のR. Pikeの予報に対する修正値は、Delta(T) = -2.88 daysであった。

再発見位置は次のとおり、

     2025 UT             R.A. (2000) Decl.       Obs.
     July 19.36684   21 13 56.10   -14 17 42.0   22.8
          19.37496   21 13 55.94   -14 17 42.6   23.1
          22.09745   21 13 01.09   -14 22 06.7   22.9
          22.11769   21 13 00.69   -14 22 08.7   22.9
          29.35277   21 10 27.31   -14 34 28.1   22.7
          29.37630   21 10 26.80   -14 34 30.2   23.0

MPCの連結軌道要素と位置推算表は次のとおり、

Orbital elements:
    P/2005 S2 (Skiff)                                                           
Epoch 2026 June 9.0 TT = JDT 2461200.5                                          
T 2029 Jan. 25.10090 TT                                 Pike                    
q   6.4003520            (2000.0)            P               Q                  
n   0.04373450     Peri.  230.17833     +0.85363653     -0.52056924             
a   7.9784761      Node   161.17131     +0.49305733     +0.79665236             
e   0.1977977      Incl.    3.13908     +0.16792602     +0.30716882             
P  22.5                                                                         
From 100 observations 2004 Sept. 7-2025 July 29, mean residual 0".8.            
                                                                                
Ephemeris:
Date    TT    R. A. (2000) Decl.     Delta      r    Elong.  Phase   m1
2026 06 08    22 42 44.8 -07 32 46   6.7763  6.9825    97.5     8.3  20.1
...
2026 06 23    22 44 07.1 -07 26 20   6.5293  6.9666   111.5     7.8  20.0
...
2026 07 01    22 44 03.9 -07 27 44   6.4057  6.9581   119.2     7.3  20.0
...
2026 07 07    22 43 40.2 -07 30 59   6.3186  6.9518   125.0     6.9  19.9
2026 07 08    22 43 34.5 -07 31 42   6.3046  6.9508   126.0     6.8  19.9
2026 07 09    22 43 28.3 -07 32 29   6.2908  6.9497   127.0     6.7  19.9
...
2026 07 15    22 42 40.7 -07 38 12   6.2114  6.9435   132.9     6.2  19.9
...
2026 07 23    22 41 11.1 -07 48 32   6.1166  6.9351   141.0     5.3  19.8
...
2026 08 07    22 37 13.3 -08 15 03   5.9785  6.9196   156.4     3.4  19.8


中野主一氏(中央局)の軌道要素は次のとおり、
from 94 observations spanning 2004 Sept. 7-2025 July 29 (mean residual 0".6). 
この彗星は、2029年9月25日UTに土星から2.71 AUの距離を通過する予定。

                    Epoch = 2006 July  4.0 TT
     T = 2006 June 27.50742 TT        Peri. = 229.71747
     e = 0.1964672                    Node  = 161.26715 2000.0
     q = 6.3995019 AU                 Incl. =   3.14072
       a =  7.9642076 AU   n = 0.04385208   P =  22.48 years

                    Epoch = 2029 Jan. 24.0 TT
     T = 2029 Jan. 20.40249 TT        Peri. = 229.84397
     e = 0.1974047                    Node  = 161.17323 2000.0
     q = 6.4032825 AU                 Incl. =   3.14066
       a =  7.9782206 AU   n = 0.04373660   P =  22.54 years

                    Epoch = 2051 May  29.0 TT
     T = 2051 June  1.66689 TT        Peri. = 229.43032
     e = 0.2021829                    Node  = 160.84679 2000.0
     q = 6.2999661 AU                 Incl. =   3.15316
       a =  7.8965041 AU   n = 0.04441726   P =  22.19 years 

前回の出現時の光度算出パラメータ(H = 7.0、2.5n = 10)から算出される現在の明るさは、
今回の再発見観測時の光度より約3等級明るい。

(MPEC 2026-N37、CBET 5710、oaa-comet 9332)

フラット表示 前のトピック | 次のトピック

題名 投稿者 日時
 » Comet P/2005 S2 = P/2025 OZ695 (Skiff) 佐藤裕久 2026-7-21 16:07

投稿するにはまず登録を
 
© 1999 Tsutomu Seki.